SVR1344 URML-UUDD

Flight info

Callsign SVR1344
Flight time N/A
Altitude 34000
Route BALIP1N BALIP DCT ITAKA DCT ZG W87 LIDUS N50 SL A927 WGD W21 NIMTA/K0841F350 T689 GOKTI/K0845F360 T661 GEKPA L736 OLOPI OLOPI3N
Aircraft A320/M-SDE3FGHIRWY/LB1

Departure

Time 2026-04-18 12:53
Airport Makhachkala Uytash International Airport (URML)

Arrival

Time N/A
Airport Domodedovo International Airport (UUDD)
Time Latitude Longitude Altitude Speed Heading
2026-04-18 12:32 42.81972 47.65573 8 ft 0 kts 59°
2026-04-18 12:37 42.81972 47.65572 8 ft 0 kts 67°
2026-04-18 12:41 42.81973 47.65572 8 ft 0 kts 73°
2026-04-18 12:45 42.81969 47.65555 8 ft 2 kts 66°
2026-04-18 12:45 42.81964 47.65536 8 ft 2 kts 74°
2026-04-18 12:46 42.81960 47.65517 9 ft 1 kts 72°
2026-04-18 12:46 42.81956 47.65504 9 ft 2 kts 52°
2026-04-18 12:46 42.81945 47.65491 9 ft 2 kts 20°
2026-04-18 12:46 42.81930 47.65489 9 ft 2 kts 348°
2026-04-18 12:47 42.81921 47.65493 10 ft 1 kts 329°
2026-04-18 12:47 42.81916 47.65498 10 ft 0 kts 327°
2026-04-18 12:49 42.81941 47.65477 9 ft 10 kts 329°
2026-04-18 12:49 42.82021 47.65409 8 ft 12 kts 325°
2026-04-18 12:49 42.82012 47.65312 8 ft 11 kts 238°
2026-04-18 12:49 42.81967 47.65215 11 ft 11 kts 238°
2026-04-18 12:50 42.81923 47.65122 14 ft 11 kts 238°
2026-04-18 12:50 42.81936 47.65027 15 ft 13 kts 324°
2026-04-18 12:50 42.82032 47.64946 14 ft 19 kts 327°
2026-04-18 12:50 42.82168 47.64828 11 ft 26 kts 327°
2026-04-18 12:51 42.82341 47.64680 11 ft 31 kts 328°
2026-04-18 12:51 42.82537 47.64511 10 ft 34 kts 328°
2026-04-18 12:51 42.82686 47.64456 8 ft 12 kts 314°
2026-04-18 12:51 42.82635 47.64426 9 ft 11 kts 147°
2026-04-18 12:52 42.82629 47.64431 9 ft 3 kts 150°
2026-04-18 12:52 42.82422 47.64607 11 ft 67 kts 147°
2026-04-18 12:52 42.81852 47.65095 16 ft 123 kts 147°
2026-04-18 12:52 42.81027 47.65808 212 ft 149 kts 148°
2026-04-18 12:53 42.80142 47.66555 708 ft 154 kts 147°
2026-04-18 12:53 42.79246 47.67319 1319 ft 154 kts 146°
2026-04-18 12:53 42.78346 47.68061 1906 ft 155 kts 146°
2026-04-18 12:53 42.77390 47.68871 2225 ft 169 kts 146°
2026-04-18 12:54 42.76343 47.69766 2545 ft 185 kts 146°
2026-04-18 12:54 42.75209 47.70734 2869 ft 202 kts 147°
2026-04-18 12:54 42.73978 47.71876 3140 ft 222 kts 135°
2026-04-18 12:54 42.73240 47.73755 3545 ft 239 kts 98°
2026-04-18 12:55 42.73546 47.76007 4099 ft 257 kts 63°
2026-04-18 12:55 42.74756 47.77846 4806 ft 266 kts 46°
2026-04-18 12:55 42.76079 47.79602 5419 ft 273 kts 49°
2026-04-18 12:55 42.77409 47.81494 6096 ft 279 kts 50°
2026-04-18 12:56 42.78731 47.83422 6780 ft 284 kts 50°
2026-04-18 12:56 42.80080 47.85414 7505 ft 288 kts 50°
2026-04-18 12:56 42.81435 47.87429 8229 ft 291 kts 49°
2026-04-18 12:56 42.82791 47.89450 8934 ft 295 kts 49°
2026-04-18 12:57 42.84172 47.91508 9624 ft 299 kts 49°
2026-04-18 12:57 42.85573 47.93603 10296 ft 302 kts 48°
2026-04-18 12:57 42.87013 47.95754 10711 ft 316 kts 48°
2026-04-18 12:57 42.88532 47.98027 11049 ft 333 kts 48°
2026-04-18 12:58 42.90148 48.00447 11353 ft 350 kts 48°
2026-04-18 12:58 42.91810 48.02937 11595 ft 365 kts 48°
2026-04-18 12:58 42.93553 48.05553 11881 ft 380 kts 47°
2026-04-18 12:58 42.95352 48.08255 12221 ft 391 kts 47°
2026-04-18 12:59 42.97187 48.11016 12764 ft 395 kts 47°
2026-04-18 12:59 42.99030 48.13792 13396 ft 397 kts 47°
2026-04-18 12:59 43.00882 48.16585 13997 ft 400 kts 46°
2026-04-18 12:59 43.02755 48.19410 14524 ft 404 kts 46°
2026-04-18 13:00 43.04641 48.22255 15032 ft 407 kts 46°
2026-04-18 13:00 43.06552 48.25140 15561 ft 411 kts 46°
2026-04-18 13:00 43.08452 48.28012 16084 ft 413 kts 46°
2026-04-18 13:00 43.10395 48.30955 16592 ft 416 kts 46°
2026-04-18 13:01 43.12338 48.33884 17065 ft 420 kts 46°
2026-04-18 13:01 43.14303 48.36844 17545 ft 423 kts 46°
2026-04-18 13:01 43.16274 48.39824 18007 ft 426 kts 46°
2026-04-18 13:01 43.18257 48.42830 18456 ft 429 kts 46°
2026-04-18 13:02 43.20255 48.45866 18902 ft 432 kts 45°
2026-04-18 13:02 43.22276 48.48943 19340 ft 435 kts 46°
2026-04-18 13:02 43.24305 48.52038 19767 ft 438 kts 45°
2026-04-18 13:02 43.26343 48.55149 20179 ft 441 kts 45°
2026-04-18 13:03 43.28392 48.58282 20574 ft 444 kts 45°
2026-04-18 13:03 43.32522 48.64605 21363 ft 450 kts 45°
2026-04-18 13:03 43.34600 48.67803 21759 ft 452 kts 46°
2026-04-18 13:04 43.36686 48.71024 22098 ft 456 kts 46°
2026-04-18 13:04 43.38797 48.74283 22450 ft 459 kts 46°
2026-04-18 13:04 43.40937 48.77582 22808 ft 461 kts 46°
2026-04-18 13:04 43.43069 48.80876 23157 ft 463 kts 45°
2026-04-18 13:05 43.45197 48.84163 23484 ft 466 kts 45°
2026-04-18 13:05 43.47362 48.87508 23820 ft 468 kts 45°
2026-04-18 13:05 43.49527 48.90855 24180 ft 470 kts 45°
2026-04-18 13:05 43.51689 48.94201 24497 ft 472 kts 45°
2026-04-18 13:06 43.53879 48.97595 24826 ft 474 kts 45°
2026-04-18 13:06 43.56078 49.01008 25147 ft 476 kts 45°
2026-04-18 13:06 43.58267 49.04414 25434 ft 478 kts 45°
2026-04-18 13:06 43.60475 49.07845 25736 ft 480 kts 45°
2026-04-18 13:07 43.62688 49.11290 26002 ft 482 kts 45°
2026-04-18 13:07 43.64894 49.14731 26283 ft 483 kts 45°
2026-04-18 13:07 43.67135 49.18229 26526 ft 485 kts 45°
2026-04-18 13:07 43.69376 49.21732 26734 ft 488 kts 45°
2026-04-18 13:08 43.71614 49.25238 27012 ft 488 kts 44°
2026-04-18 13:08 43.73850 49.28737 27332 ft 487 kts 45°
2026-04-18 13:08 43.76079 49.32236 27703 ft 486 kts 45°
2026-04-18 13:08 43.78307 49.35741 28043 ft 484 kts 44°
2026-04-18 13:09 43.80523 49.39231 28342 ft 484 kts 44°
2026-04-18 13:09 43.82742 49.42662 28648 ft 482 kts 40°
2026-04-18 13:09 43.85367 49.45505 28866 ft 472 kts 24°
2026-04-18 13:09 43.88320 49.47213 29157 ft 460 kts
2026-04-18 13:10 43.91436 49.47840 29492 ft 447 kts 355°
2026-04-18 13:10 43.94481 49.47420 29828 ft 436 kts 342°
2026-04-18 13:10 43.97409 49.46361 30146 ft 433 kts 339°
2026-04-18 13:10 44.00286 49.45256 30353 ft 435 kts 339°
2026-04-18 13:11 44.03207 49.44130 30651 ft 434 kts 339°
2026-04-18 13:11 44.06097 49.43028 31012 ft 432 kts 339°
2026-04-18 13:11 44.08989 49.41932 31309 ft 431 kts 339°
2026-04-18 13:11 44.11884 49.40838 31603 ft 430 kts 339°
2026-04-18 13:12 44.14740 49.39769 31937 ft 428 kts 339°
2026-04-18 13:12 44.17614 49.38688 32218 ft 427 kts 339°
2026-04-18 13:12 44.20490 49.37609 32451 ft 426 kts 339°
2026-04-18 13:12 44.23336 49.36534 32632 ft 427 kts 339°
2026-04-18 13:13 44.26183 49.35461 32772 ft 428 kts 338°
2026-04-18 13:13 44.29089 49.34365 32950 ft 428 kts 338°
2026-04-18 13:13 44.31952 49.33281 33139 ft 428 kts 338°
2026-04-18 13:13 44.34811 49.32200 33316 ft 428 kts 338°
2026-04-18 13:14 44.37707 49.31103 33433 ft 430 kts 338°
2026-04-18 13:14 44.40590 49.30008 33550 ft 430 kts 338°
2026-04-18 13:14 44.43455 49.28922 33727 ft 430 kts 338°
2026-04-18 13:14 44.46331 49.27829 33895 ft 429 kts 338°
2026-04-18 13:15 44.52103 49.25634 33918 ft 428 kts 338°
2026-04-18 13:15 44.57844 49.23445 33926 ft 429 kts 338°
2026-04-18 13:16 44.63602 49.21243 33926 ft 430 kts 338°
2026-04-18 13:16 44.69358 49.19037 33935 ft 430 kts 338°
2026-04-18 13:17 44.75138 49.16819 33926 ft 431 kts 338°
2026-04-18 13:17 44.80882 49.14610 33921 ft 431 kts 338°
2026-04-18 13:18 44.86639 49.12390 33917 ft 430 kts 338°
2026-04-18 13:18 44.92367 49.10181 33915 ft 429 kts 338°
2026-04-18 13:19 44.98128 49.07950 33920 ft 429 kts 337°
2026-04-18 13:19 45.03889 49.05714 33916 ft 429 kts 338°
2026-04-18 13:20 45.09598 49.03495 33916 ft 429 kts 338°
2026-04-18 13:20 45.15355 49.01268 33919 ft 431 kts 338°
2026-04-18 13:21 45.21107 48.99031 33927 ft 429 kts 338°
2026-04-18 13:21 45.26884 48.96777 33923 ft 429 kts 338°
2026-04-18 13:22 45.32650 48.94520 33925 ft 431 kts 338°
2026-04-18 13:22 45.38393 48.92264 33927 ft 431 kts 338°
2026-04-18 13:23 45.44178 48.89988 33931 ft 431 kts 338°
2026-04-18 13:23 45.49961 48.87706 33931 ft 431 kts 338°
2026-04-18 13:24 45.55703 48.85437 33931 ft 432 kts 338°
2026-04-18 13:24 45.61469 48.83152 33931 ft 431 kts 337°
2026-04-18 13:25 45.67280 48.80846 33933 ft 433 kts 338°
2026-04-18 13:25 45.73051 48.78550 33935 ft 433 kts 337°
2026-04-18 13:26 45.78832 48.76243 33938 ft 432 kts 337°
2026-04-18 13:26 45.84644 48.73921 33942 ft 433 kts 337°
2026-04-18 13:27 45.90430 48.71603 33944 ft 434 kts 337°
2026-04-18 13:27 45.96263 48.69256 33948 ft 433 kts 337°
2026-04-18 13:28 46.02054 48.66926 33955 ft 433 kts 337°
2026-04-18 13:28 46.07827 48.64588 33959 ft 432 kts 335°
2026-04-18 13:29 46.13110 48.60927 33958 ft 418 kts 320°
2026-04-18 13:29 46.17347 48.55434 33959 ft 406 kts 306°
2026-04-18 13:30 46.20324 48.48640 33957 ft 399 kts 291°
2026-04-18 13:30 46.21985 48.41033 33956 ft 398 kts 282°
2026-04-18 13:31 46.23203 48.33295 33955 ft 398 kts 281°
2026-04-18 13:31 46.24393 48.25526 33946 ft 398 kts 281°
2026-04-18 13:32 46.25586 48.17738 33948 ft 398 kts 281°
2026-04-18 13:32 46.26918 48.09984 33947 ft 398 kts 284°
2026-04-18 13:33 46.28743 48.02421 33940 ft 401 kts 289°
2026-04-18 13:33 46.31076 47.95094 33939 ft 404 kts 294°
2026-04-18 13:34 46.33907 47.88074 33941 ft 406 kts 298°
2026-04-18 13:34 46.36952 47.81209 33941 ft 406 kts 298°
2026-04-18 13:35 46.39989 47.74383 33935 ft 407 kts 298°
2026-04-18 13:35 46.43059 47.67475 33929 ft 408 kts 298°
2026-04-18 13:36 46.46110 47.60598 33934 ft 408 kts 298°
2026-04-18 13:36 46.49158 47.53706 33927 ft 408 kts 298°
2026-04-18 13:37 46.52231 47.46743 33923 ft 410 kts 298°
2026-04-18 13:37 46.55289 47.39789 33926 ft 408 kts 298°
2026-04-18 13:38 46.58316 47.32896 33933 ft 408 kts 297°
2026-04-18 13:38 46.61355 47.25924 33930 ft 408 kts 297°
2026-04-18 13:39 46.64395 47.18954 33924 ft 409 kts 297°
2026-04-18 13:39 46.67426 47.11993 33924 ft 410 kts 296°
2026-04-18 13:40 46.70476 47.05003 33919 ft 411 kts 297°
2026-04-18 13:40 46.73579 46.98036 33916 ft 411 kts 297°
2026-04-18 13:41 46.76685 46.91045 33917 ft 411 kts 297°
2026-04-18 13:41 46.79773 46.84067 33918 ft 412 kts 297°
2026-04-18 13:42 46.82853 46.77086 33918 ft 413 kts 297°
2026-04-18 13:42 46.85946 46.70058 33917 ft 413 kts 297°
2026-04-18 13:43 46.89051 46.62980 33912 ft 413 kts 297°
2026-04-18 13:43 46.92136 46.55923 33914 ft 412 kts 297°
2026-04-18 13:44 46.95204 46.48895 33912 ft 413 kts 296°
2026-04-18 13:44 46.98284 46.41812 33908 ft 414 kts 296°
2026-04-18 13:45 47.01562 46.34848 33908 ft 419 kts 302°
2026-04-18 13:45 47.05585 46.28576 33910 ft 428 kts 310°
2026-04-18 13:46 47.10324 46.23250 33904 ft 438 kts 319°
2026-04-18 13:46 47.15773 46.18948 33900 ft 448 kts 326°
2026-04-18 13:47 47.21396 46.15028 33900 ft 449 kts 326°
2026-04-18 13:47 47.27018 46.11100 33901 ft 447 kts 326°
2026-04-18 13:48 47.32625 46.07148 33902 ft 448 kts 326°
2026-04-18 13:48 47.38258 46.03168 33904 ft 450 kts 326°
2026-04-18 13:49 47.43870 45.99205 33904 ft 450 kts 326°
2026-04-18 13:49 47.49520 45.95211 33905 ft 450 kts 326°
2026-04-18 13:50 47.55152 45.91215 33901 ft 451 kts 326°
2026-04-18 13:50 47.60780 45.87208 33902 ft 450 kts 326°
2026-04-18 13:51 47.66431 45.83173 33905 ft 452 kts 326°
2026-04-18 13:51 47.72077 45.79134 33907 ft 450 kts 326°
2026-04-18 13:52 47.77704 45.75097 33905 ft 451 kts 326°
2026-04-18 13:52 47.83342 45.71040 33908 ft 452 kts 326°
2026-04-18 13:53 47.89003 45.66961 33904 ft 452 kts 326°
2026-04-18 13:53 47.94685 45.62854 33906 ft 453 kts 326°
2026-04-18 13:54 48.00359 45.58746 33910 ft 454 kts 326°
2026-04-18 13:54 48.06001 45.54649 33912 ft 452 kts 326°
2026-04-18 13:55 48.11697 45.50500 33903 ft 453 kts 327°
2026-04-18 13:55 48.17395 45.46367 33918 ft 454 kts 327°
2026-04-18 13:56 48.23059 45.42227 33917 ft 453 kts 327°
2026-04-18 13:56 48.28719 45.38071 33916 ft 454 kts 327°
2026-04-18 13:57 48.34244 45.33685 33904 ft 447 kts 320°
2026-04-18 13:57 48.39109 45.28136 33901 ft 437 kts 310°
2026-04-18 13:58 48.43208 45.21502 33903 ft 429 kts 301°
2026-04-18 13:58 48.46476 45.14151 33894 ft 423 kts 295°
2026-04-18 13:59 48.49514 45.06583 33892 ft 425 kts 295°
2026-04-18 13:59 48.52567 44.98944 33892 ft 426 kts 295°
2026-04-18 14:00 48.55621 44.91304 33904 ft 427 kts 295°
2026-04-18 14:00 48.58669 44.83652 33894 ft 427 kts 295°
2026-04-18 14:01 48.61715 44.75986 33898 ft 429 kts 295°
2026-04-18 14:01 48.64770 44.68277 33896 ft 428 kts 295°
2026-04-18 14:02 48.67816 44.60560 33897 ft 430 kts 295°
2026-04-18 14:02 48.70878 44.52764 33896 ft 430 kts 295°
2026-04-18 14:03 48.74254 44.45294 33901 ft 438 kts 306°
2026-04-18 14:03 48.78621 44.39545 33906 ft 452 kts 320°
2026-04-18 14:04 48.84347 44.35423 33901 ft 466 kts 337°
2026-04-18 14:04 48.90821 44.33873 33916 ft 475 kts 352°
2026-04-18 14:05 48.97396 44.33702 33907 ft 474 kts 353°
2026-04-18 14:05 49.04016 44.33602 33904 ft 475 kts 353°
2026-04-18 14:06 49.10566 44.33469 33898 ft 474 kts 353°
2026-04-18 14:06 49.17142 44.33324 33896 ft 474 kts 353°
2026-04-18 14:07 49.23723 44.33173 33893 ft 474 kts 353°
2026-04-18 14:07 49.30335 44.33016 33894 ft 473 kts 353°
2026-04-18 14:08 49.40190 44.32780 33898 ft 474 kts 353°
2026-04-18 14:09 49.46769 44.32623 33897 ft 474 kts 353°
2026-04-18 14:09 49.53364 44.32464 33900 ft 476 kts 353°
2026-04-18 14:10 49.60003 44.32619 33901 ft 481 kts 356°
2026-04-18 14:10 49.66640 44.33205 33904 ft 480 kts 357°
2026-04-18 14:11 49.73333 44.33819 33906 ft 481 kts 357°
2026-04-18 14:11 49.79969 44.34420 33906 ft 480 kts 356°
2026-04-18 14:12 49.86644 44.35019 33907 ft 481 kts 356°
2026-04-18 14:12 49.93272 44.35611 33905 ft 481 kts 356°
2026-04-18 14:13 49.99962 44.36208 33901 ft 481 kts 356°
2026-04-18 14:13 50.06625 44.36805 33900 ft 481 kts 356°
2026-04-18 14:14 50.13264 44.37400 33900 ft 482 kts 356°
2026-04-18 14:14 50.19945 44.38008 33901 ft 481 kts 356°
2026-04-18 14:15 50.26593 44.38611 33902 ft 480 kts 356°
2026-04-18 14:15 50.33253 44.39216 33900 ft 481 kts 356°
2026-04-18 14:16 50.39908 44.39823 33902 ft 480 kts 356°
2026-04-18 14:16 50.46581 44.40429 33901 ft 481 kts 356°
2026-04-18 14:17 50.53221 44.41037 33900 ft 481 kts 356°
2026-04-18 14:17 50.63222 44.41957 33900 ft 480 kts 356°
2026-04-18 14:18 50.73184 44.42874 33901 ft 480 kts 355°
2026-04-18 14:19 50.83147 44.43796 33901 ft 480 kts 355°
2026-04-18 14:20 50.93136 44.44725 33902 ft 480 kts 355°